Location: Fort Worth, Tx
(32.7431°N, 97.3695°W)
Time: 21:50:03
(UTC-05:00)

Tiros 1 - Pass Details

Date: 11 October 2024
Orbit: 622 x 654 km, 48.4° (Epoch: 05 November)

Event Time Altitude Azimuth Distance (km) Brightness Sun altitude
Rises 13:50:47 0° 313° (NW) 2,908 10.2 49.4°
Reaches altitude 10° 13:53:11 10° 320° (NW) 1,995 9.4 49.5°
Maximum altitude 13:57:36 47° 34° (NE) 821 7.9 49.6°
Drops below altitude 10° 14:02:00 10° 109° (ESE) 1,980 10.0 49.7°
Sets 14:04:22 0° 115° (ESE) 2,883 10.8 49.7°
